Weather History for Ashtabula, OH

Change the Weather History Date:

Sunday, December 9, 2012

  Actual Average (KYNG) Record (KYNG)
Temperature  
Mean Temperature 40 °F 32 °F  
Max Temperature 52 °F 38 °F 64 °F (1952)
Min Temperature 30 °F 26 °F -2 °F (1977)
Degree Days  
Heating Degree Days 24 33  
Month to date heating degree days 281  
Since 1 July heating degree days 1610  
Cooling Degree Days 0 0  
Month to date cooling degree days 0  
Year to date cooling degree days 544  
Moisture  
Dew Point 35 °F    
Average Humidity 80    
Maximum Humidity 90    
Minimum Humidity 65    
Precipitation  
Precipitation 0.24 in 0.10 in 0.69 in (1953)
Month to date precipitation 0.91  
Year to date precipitation 36.83  
Snow  
Snow 0.00 in 0.40 in - ()
Month to date snowfall 3.8  
Since 1 July snowfall 8.2  
Snow Depth -    
Sea Level Pressure  
Sea Level Pressure 30.01 in    
Wind  
Wind Speed 6 mph (ESE)    
Max Wind Speed 13 mph    
Max Gust Speed 20 mph    
Visibility 9 miles    
Events Rain    
T = Trace of Precipitation, MM = Missing Value Source: NWS Daily Summary

Daily Weather History Graph

Daily Weather History Graph

Search for Another Location

Airport:

Trip Planner

Search our weather history database for the weather conditions in past years. The results will help you decide how hot, cold, wet, or windy it might be!

Date:

Astronomy

Dec. 09, 2012 Rise Set
Actual Time 7:38 AM EST 4:51 PM EST
Civil Twilight 7:07 AM EST 5:23 PM EST
Nautical Twilight 6:32 AM EST 5:58 PM EST
Astronomical Twilight 5:58 AM EST 6:32 PM EST
Moon 3:07 AM EST (12/9) 2:00 PM EST (12/9)
Length of Visible Light 10h 16m
Length of Day
9h 13m
Waning Crescent, 19% of the Moon is Illuminated
Dec 9
Waning Crescent
Dec 13
New
Dec 20
First Quarter
Dec 28
Full
Jan 4
Last Quarter

Hourly Weather History & Observations

Time (EST) Temp. Windchill Dew Point Humidity Pressure Visibility Wind Dir Wind Speed Gust Speed Precip Events Conditions
12:53 AM 36.0 °F 32.1 °F 30.0 °F 79% 30.17 in 10.0 mi ENE 4.6 mph - N/A   Overcast
1:13 AM 35.6 °F 31.7 °F 28.4 °F 75% 30.15 in 10.0 mi ENE 4.6 mph - N/A   Scattered Clouds
1:53 AM 35.1 °F 32.2 °F 28.0 °F 76% 30.19 in 10.0 mi ENE 3.5 mph - N/A   Clear
2:53 AM 35.1 °F 31.0 °F 28.0 °F 76% 30.20 in 10.0 mi ENE 4.6 mph - N/A   Mostly Cloudy
3:53 AM 34.0 °F 28.8 °F 28.0 °F 79% 30.20 in 10.0 mi East 5.8 mph - N/A   Scattered Clouds
4:43 AM 33.8 °F 28.6 °F 26.6 °F 75% 30.16 in 10.0 mi ENE 5.8 mph - N/A   Mostly Cloudy
4:51 AM 33.8 °F 29.6 °F 26.6 °F 75% 30.16 in 10.0 mi East 4.6 mph - N/A   Scattered Clouds
4:53 AM 34.0 °F 29.8 °F 27.0 °F 75% 30.19 in 10.0 mi East 4.6 mph - N/A   Scattered Clouds
5:53 AM 30.9 °F - 27.0 °F 85% 30.22 in 10.0 mi Calm Calm - N/A   Partly Cloudy
6:53 AM 32.0 °F - 27.0 °F 82% 30.20 in 10.0 mi Calm Calm - N/A   Overcast
7:53 AM 32.0 °F 27.5 °F 27.0 °F 82% 30.19 in 10.0 mi ENE 4.6 mph - N/A   Overcast
8:53 AM 33.1 °F 27.7 °F 28.0 °F 82% 30.17 in 10.0 mi ENE 5.8 mph - N/A   Overcast
9:53 AM 35.1 °F 31.0 °F 28.9 °F 78% 30.17 in 10.0 mi ENE 4.6 mph - N/A   Clear
10:53 AM 37.9 °F 31.5 °F 30.0 °F 73% 30.13 in 10.0 mi East 9.2 mph - N/A   Partly Cloudy
11:53 AM 42.1 °F 37.7 °F 32.0 °F 67% 30.07 in 10.0 mi ESE 6.9 mph - N/A   Mostly Cloudy
12:37 PM 42.8 °F 37.0 °F 33.8 °F 70% 30.02 in 10.0 mi SE 10.4 mph - N/A   Overcast
12:53 PM 44.1 °F 39.5 °F 33.1 °F 65% 30.03 in 10.0 mi SE 8.1 mph - N/A   Overcast
1:53 PM 43.0 °F 39.5 °F 34.0 °F 71% 30.00 in 10.0 mi ESE 5.8 mph - N/A   Overcast
2:53 PM 44.1 °F 39.0 °F 36.0 °F 73% 29.96 in 10.0 mi SE 9.2 mph - N/A   Overcast
3:53 PM 44.1 °F 39.5 °F 37.9 °F 79% 29.93 in 10.0 mi SE 8.1 mph - 0.00 in Rain Light Rain
4:53 PM 44.1 °F 39.5 °F 39.0 °F 82% 29.88 in 7.0 mi SE 8.1 mph - 0.03 in Rain Light Rain
5:53 PM 45.0 °F 38.9 °F 39.9 °F 82% 29.85 in 10.0 mi SSE 12.7 mph - 0.02 in   Overcast
6:43 PM 46.4 °F 41.5 °F 42.8 °F 87% 29.82 in 4.0 mi South 10.4 mph - 0.03 in Rain Rain
6:53 PM 46.0 °F 40.6 °F 42.1 °F 86% 29.84 in 7.0 mi South 11.5 mph 19.6 mph 0.04 in Rain Light Rain
7:03 PM 46.4 °F 41.5 °F 42.8 °F 87% 29.82 in 9.0 mi South 10.4 mph - 0.00 in Rain Light Rain
7:53 PM 48.0 °F - 44.1 °F 86% 29.82 in 6.0 mi South 10.4 mph - 0.04 in Rain Light Rain
8:53 PM 48.9 °F - 46.0 °F 90% 29.79 in 7.0 mi South 10.4 mph 17.3 mph 0.01 in   Overcast
9:53 PM 48.9 °F - 46.0 °F 90% 29.77 in 5.0 mi South 8.1 mph - 0.00 in Rain Light Rain
10:53 PM 51.1 °F - 48.0 °F 89% 29.72 in 6.0 mi South 11.5 mph - 0.04 in Rain Light Rain
11:02 PM 51.8 °F - 48.2 °F 88% 29.71 in 6.0 mi South 10.4 mph - 0.01 in Rain Light Rain
11:53 PM 52.0 °F - 48.9 °F 89% 29.70 in 7.0 mi South 8.1 mph - 0.06 in Rain Light Rain